Sigfox identifier Datetime Temperature Humidity SNR
002EEE71 2019-04-23 15:13:25 16 33 22.9
002EEE71 2019-04-23 14:40:00 15.9 33 22.9
002EEE71 2019-04-23 14:06:37 15.9 33 22.7
002EEE71 2019-04-23 13:33:12 15.7 33 22.6
002EEE71 2019-04-23 12:59:48 15.7 32 22.6
002EEE71 2019-04-23 12:26:22 15.7 32 22.5
002EEE71 2019-04-23 11:52:59 15.6 32 22.4
002EEE71 2019-04-23 11:19:36 15.5 32 22.4
002EEE71 2019-04-23 10:46:12 15.5 32 22.4
002EEE71 2019-04-23 10:12:48 15.5 32 22.5
002EEE71 2019-04-23 09:39:24 15.5 32 22.4
002EEE71 2019-04-23 09:05:59 15.5 32 22.2
002EEE71 2019-04-23 08:32:34 15.5 32 22.1
002EEE71 2019-04-23 07:59:11 15.5 32 22
002EEE71 2019-04-23 07:25:47 15.5 32 22
002EEE71 2019-04-23 06:52:22 15.5 32 22.1
002EEE71 2019-04-23 06:18:58 15.5 32 22.1
002EEE71 2019-04-23 05:45:33 15.5 32 22.2
002EEE71 2019-04-23 05:12:08 15.5 32 22.2
002EEE71 2019-04-23 04:38:45 15.5 32 22.4
002EEE71 2019-04-23 04:05:20 15.5 32 22.3
002EEE71 2019-04-23 03:31:56 15.5 32 22.4
002EEE71 2019-04-23 02:58:32 15.6 32 22.4
002EEE71 2019-04-23 02:25:09 15.6 32 22.5
002EEE71 2019-04-23 01:51:44 15.6 32 22.5
002EEE71 2019-04-23 01:18:20 15.7 32 22.5
002EEE71 2019-04-23 00:44:55 15.7 32 22.5
002EEE71 2019-04-23 00:11:30 15.7 32 22.6
002EEE71 2019-04-22 23:38:04 15.7 32 22.7
002EEE71 2019-04-22 23:04:38 15.7 32 22.7
002EEE71 2019-04-22 22:31:12 15.7 32 22.7
002EEE71 2019-04-22 21:57:46 15.8 32 22.6
002EEE71 2019-04-22 21:24:21 15.7 32 22.6
002EEE71 2019-04-22 20:50:56 15.8 32 22.5
002EEE71 2019-04-22 20:17:31 15.8 32 22.6
002EEE71 2019-04-22 19:44:07 15.9 32 22.6
002EEE71 2019-04-22 19:10:42 15.8 32 22.5
002EEE71 2019-04-22 18:37:18 15.9 32 22.5
002EEE71 2019-04-22 18:03:54 15.8 32 22.6
002EEE71 2019-04-22 17:30:31 15.7 32 22.6
002EEE71 2019-04-22 16:57:07 15.7 32 22.5
002EEE71 2019-04-22 16:23:43 15.7 31 22.6
002EEE71 2019-04-22 15:50:20 15.7 31 22.5
002EEE71 2019-04-22 15:16:55 15.7 31 22.5
002EEE71 2019-04-22 14:43:31 15.7 31 22.3
002EEE71 2019-04-22 14:10:07 15.6 31 22.4
002EEE71 2019-04-22 13:36:42 15.7 31 22.3
002EEE71 2019-04-22 13:03:19 15.5 31 22.3
002EEE71 2019-04-22 12:29:55 15.6 31 22.2
002EEE71 2019-04-22 11:56:32 15.5 31 22.2
002EEE71 2019-04-22 11:23:09 15.5 31 22.1
002EEE71 2019-04-22 10:49:44 15.5 31 21.9
002EEE71 2019-04-22 10:16:20 15.5 31 21.9
002EEE71 2019-04-22 09:42:56 15.5 31 21.8
002EEE71 2019-04-22 09:09:32 15.5 31 21.8
002EEE71 2019-04-22 08:36:08 15.5 31 21.8
002EEE71 2019-04-22 08:02:43 15.5 31 21.9
002EEE71 2019-04-22 07:29:20 15.5 31 21.8
002EEE71 2019-04-22 06:55:55 15.5 31 21.9
002EEE71 2019-04-22 06:22:32 15.5 31 21.9
002EEE71 2019-04-22 05:49:09 15.5 31 21.9
002EEE71 2019-04-22 05:15:46 15.5 31 22
002EEE71 2019-04-22 04:42:22 15.5 31 22
002EEE71 2019-04-22 04:08:58 15.5 31 22
002EEE71 2019-04-22 03:35:35 15.5 31 21.9
002EEE71 2019-04-22 03:02:12 15.5 31 22
002EEE71 2019-04-22 02:28:48 15.5 31 21.9
002EEE71 2019-04-22 01:55:24 15.5 31 22
002EEE71 2019-04-22 01:21:59 15.5 31 21.9
002EEE71 2019-04-22 00:48:35 15.5 31 22
002EEE71 2019-04-22 00:15:11 15.5 31 22
002EEE71 2019-04-21 23:41:46 15.4 31 22
002EEE71 2019-04-21 23:08:21 15.5 31 22.1
002EEE71 2019-04-21 22:34:56 15.5 31 22.3
002EEE71 2019-04-21 22:01:32 15.5 31 22.3
002EEE71 2019-04-21 21:28:07 15.5 31 22.3
002EEE71 2019-04-21 20:54:43 15.5 31 22.4
002EEE71 2019-04-21 20:21:19 15.5 31 22.3
002EEE71 2019-04-21 19:47:55 15.4 31 22.4
002EEE71 2019-04-21 19:14:29 15.4 31 22.4
002EEE71 2019-04-21 18:41:04 15.4 30 22.5
002EEE71 2019-04-21 18:07:40 15.3 30 22.4
002EEE71 2019-04-21 17:34:15 15.3 30 22.5
002EEE71 2019-04-21 17:00:50 15.3 30 22.4
002EEE71 2019-04-21 16:27:26 15.3 30 22.4
002EEE71 2019-04-21 15:54:02 15.3 30 22.5
002EEE71 2019-04-21 15:20:37 15.3 30 22.4
002EEE71 2019-04-21 14:47:12 15.3 30 22.4
002EEE71 2019-04-21 14:13:47 15.5 30 22.5
002EEE71 2019-04-21 13:40:22 15.3 30 22.5
002EEE71 2019-04-21 13:06:57 15.4 30 22.4
002EEE71 2019-04-21 12:33:32 15.4 30 22.4
002EEE71 2019-04-21 12:00:08 15.5 30 22.4
002EEE71 2019-04-21 11:26:43 15.5 30 22.5
002EEE71 2019-04-21 10:53:18 15.5 30 22.4
002EEE71 2019-04-21 10:19:52 15.5 30 22.4
002EEE71 2019-04-21 09:46:26 15.5 30 22.4
002EEE71 2019-04-21 09:13:01 15.5 30 22.4
002EEE71 2019-04-21 08:39:35 15.5 30 22.4
002EEE71 2019-04-21 08:06:10 15.5 30 22.4
002EEE71 2019-04-21 07:32:45 15.5 30 22.5
002EEE71 2019-04-21 06:59:21 15.5 30 22.5
002EEE71 2019-04-21 06:25:56 15.5 30 22.6
002EEE71 2019-04-21 05:52:30 15.5 30 22.6
002EEE71 2019-04-21 05:19:05 15.5 30 22.7
002EEE71 2019-04-21 04:45:39 15.5 30 22.7
002EEE71 2019-04-21 04:12:13 15.5 30 22.8
002EEE71 2019-04-21 03:38:48 15.5 30 22.7
002EEE71 2019-04-21 03:05:23 15.5 30 22.8
002EEE71 2019-04-21 02:31:56 15.5 30 22.8
002EEE71 2019-04-21 01:58:30 15.5 30 22.8
002EEE71 2019-04-21 01:25:05 15.5 30 22.8
002EEE71 2019-04-21 00:51:44 15.5 30 22.8
002EEE71 2019-04-21 00:18:15 15.5 30 22.7
002EEE71 2019-04-20 23:44:49 15.5 30 22.7
002EEE71 2019-04-20 23:11:25 15.5 29 22.7
002EEE71 2019-04-20 22:38:01 15.5 29 22.7
002EEE71 2019-04-20 22:04:37 15.5 29 22.7
002EEE71 2019-04-20 21:31:12 15.5 29 22.7
002EEE71 2019-04-20 20:57:45 15.5 29 22.6
002EEE71 2019-04-20 20:24:21 15.5 29 22.7
002EEE71 2019-04-20 19:50:56 15.5 29 22.8
002EEE71 2019-04-20 19:17:31 15.5 29 22.7
002EEE71 2019-04-20 18:44:06 15.5 29 22.7
002EEE71 2019-04-20 18:10:41 15.5 29 22.7
002EEE71 2019-04-20 17:37:16 15.5 29 22.7
002EEE71 2019-04-20 17:03:50 15.5 29 22.6
002EEE71 2019-04-20 16:30:25 15.5 29 22.6
002EEE71 2019-04-20 15:57:00 15.5 29 22.5
002EEE71 2019-04-20 15:23:36 15.5 29 22.4
002EEE71 2019-04-20 14:50:12 15.5 29 22.3
002EEE71 2019-04-20 14:16:47 15.5 29 22.2
002EEE71 2019-04-20 13:43:26 15.5 29 22.3
002EEE71 2019-04-20 13:09:57 15.5 29 22.3
002EEE71 2019-04-20 12:36:32 15.5 29 22.2
002EEE71 2019-04-20 12:03:08 15.5 29 22.2
002EEE71 2019-04-20 11:29:45 15.5 29 22
002EEE71 2019-04-20 10:56:20 15.5 29 22
002EEE71 2019-04-20 10:22:55 15.5 29 22.1
002EEE71 2019-04-20 09:49:31 15.6 29 22.1
002EEE71 2019-04-20 09:16:06 15.7 29 22.1
002EEE71 2019-04-20 08:42:42 15.7 29 22.1
002EEE71 2019-04-20 08:09:17 15.7 29 22.1
002EEE71 2019-04-20 07:35:52 15.7 29 22.1
002EEE71 2019-04-20 07:02:27 15.7 29 22.2
002EEE71 2019-04-20 06:29:01 15.7 29 22.2
002EEE71 2019-04-20 05:55:36 15.7 29 22.2
002EEE71 2019-04-20 05:22:11 15.7 29 22.1
002EEE71 2019-04-20 04:48:46 15.7 28 22.1
002EEE71 2019-04-20 04:15:22 15.7 28 22.1
002EEE71 2019-04-20 03:41:57 15.8 28 22.2
002EEE71 2019-04-20 03:08:33 15.9 28 22.2
002EEE71 2019-04-20 02:35:09 15.9 28 22.2
002EEE71 2019-04-20 02:01:45 15.9 28 22.3
002EEE71 2019-04-20 01:28:24 15.9 28 22.3
002EEE71 2019-04-20 00:54:58 15.9 28 22.4
002EEE71 2019-04-20 00:21:34 15.9 28 22.4
002EEE71 2019-04-19 23:48:10 15.9 28 22.5
002EEE71 2019-04-19 23:14:46 16 28 22.4
002EEE71 2019-04-19 22:41:22 16 28 22.4
002EEE71 2019-04-19 22:07:59 15.9 28 22.5
002EEE71 2019-04-19 21:34:34 16 28 22.5
002EEE71 2019-04-19 21:01:10 16.1 28 22.3
002EEE71 2019-04-19 20:27:46 16.1 28 22.4
002EEE71 2019-04-19 19:54:21 16.1 28 22.3
002EEE71 2019-04-19 19:20:57 16 28 22.3
002EEE71 2019-04-19 18:47:31 16 28 22.2
002EEE71 2019-04-19 18:14:06 15.9 28 22.3
002EEE71 2019-04-19 17:40:41 15.9 28 22.2
002EEE71 2019-04-19 17:07:16 15.9 28 22.2
002EEE71 2019-04-19 16:33:53 15.9 28 22.2
002EEE71 2019-04-19 16:00:28 15.9 28 22.3
002EEE71 2019-04-19 15:27:07 15.9 28 22.4
002EEE71 2019-04-19 14:53:46 15.9 28 22.3
002EEE71 2019-04-19 14:20:22 15.9 28 22.2
002EEE71 2019-04-19 13:46:59 15.8 28 22.2
002EEE71 2019-04-19 13:13:36 15.8 28 22.1
002EEE71 2019-04-19 12:40:11 15.7 28 22.2
002EEE71 2019-04-19 12:06:47 15.7 28 22.3
002EEE71 2019-04-19 11:33:22 15.7 28 22.2
002EEE71 2019-04-19 10:59:59 15.7 27 22.2
002EEE71 2019-04-19 10:26:35 15.7 27 22.1
002EEE71 2019-04-19 09:53:10 15.7 27 22.1
002EEE71 2019-04-19 09:19:45 15.9 27 22.1
002EEE71 2019-04-19 08:46:20 15.8 27 22.1
002EEE71 2019-04-19 08:12:55 15.9 27 22.2
002EEE71 2019-04-19 07:39:30 15.9 27 22.5
002EEE71 2019-04-19 07:06:05 15.9 27 22.6
002EEE71 2019-04-19 06:32:41 15.9 27 22.6
002EEE71 2019-04-19 05:59:17 15.9 27 22.6
002EEE71 2019-04-19 05:25:52 15.9 27 22.7
002EEE71 2019-04-19 04:52:27 15.9 27 22.7
002EEE71 2019-04-19 04:19:03 16.1 27 22.8
002EEE71 2019-04-19 03:45:38 16.1 27 22.9
002EEE71 2019-04-19 03:12:13 16.1 27 23
002EEE71 2019-04-19 02:38:49 16.1 27 22.8
002EEE71 2019-04-19 02:05:24 16.2 27 22.7
002EEE71 2019-04-19 01:32:00 16.3 27 22.8
002EEE71 2019-04-19 00:58:36 16.3 27 22.9
002EEE71 2019-04-19 00:25:13 16.3 27 22.9
002EEE71 2019-04-18 23:51:51 16.4 27 23.1
002EEE71 2019-04-18 23:18:28 16.4 27 23.1
002EEE71 2019-04-18 22:45:05 16.5 27 23
002EEE71 2019-04-18 22:11:40 16.5 27 22.9
002EEE71 2019-04-18 21:38:16 16.5 27 22.8
002EEE71 2019-04-18 21:04:52 16.5 27 22.8
002EEE71 2019-04-18 20:31:28 16.5 27 22.7
002EEE71 2019-04-18 19:58:03 16.5 27 22.6
002EEE71 2019-04-18 19:24:38 16.5 27 22.6
002EEE71 2019-04-18 18:51:13 16.4 27 22.4
002EEE71 2019-04-18 18:17:48 16.3 27 22.2
002EEE71 2019-04-18 17:44:22 16.4 27 22.1
002EEE71 2019-04-18 17:10:56 16.3 27 21.9
002EEE71 2019-04-18 16:37:32 16.3 26 21.8
002EEE71 2019-04-18 16:04:09 16.3 26 21.7
002EEE71 2019-04-18 15:30:45 16.1 26 21.6
002EEE71 2019-04-18 14:57:21 16.1 26 21.5
002EEE71 2019-04-18 14:23:57 16.1 26 21.2
002EEE71 2019-04-18 13:50:33 16.1 26 20.9
002EEE71 2019-04-18 13:17:10 16.1 26 20.8
002EEE71 2019-04-18 12:43:44 16.1 26 21.1
002EEE71 2019-04-18 12:10:21 16.1 26 21.3
002EEE71 2019-04-18 11:36:57 16.1 26 21.1
002EEE71 2019-04-18 11:03:33 16.1 26 21.1
002EEE71 2019-04-18 10:30:08 16.1 26 21.1
002EEE71 2019-04-18 09:56:45 16.1 26 20.8
002EEE71 2019-04-18 09:23:19 16.1 26 20.9
002EEE71 2019-04-18 08:49:54 16.1 26 20.9
002EEE71 2019-04-18 08:16:29 16.1 26 21.2
002EEE71 2019-04-18 07:43:04 16.1 26 21.2
002EEE71 2019-04-18 07:09:40 16.1 26 21.4
002EEE71 2019-04-18 06:36:16 16.1 25 21.6
002EEE71 2019-04-18 06:02:51 16.1 25 21.6
002EEE71 2019-04-18 05:29:26 16.1 25 21.9
002EEE71 2019-04-18 04:56:02 16.1 25 21.8
002EEE71 2019-04-18 04:22:36 16.2 25 22.8
002EEE71 2019-04-18 03:49:11 16.3 25 22.7
002EEE71 2019-04-18 03:15:46 16.3 25 22.6
002EEE71 2019-04-18 02:42:22 16.3 25 22.7
002EEE71 2019-04-18 02:08:57 16.4 25 22.6
002EEE71 2019-04-18 01:35:32 16.5 25 22.6
002EEE71 2019-04-18 01:02:07 16.5 25 22.6
002EEE71 2019-04-18 00:28:42 16.5 25 22.6
002EEE71 2019-04-17 23:55:18 16.5 25 22.7
002EEE71 2019-04-17 23:21:52 16.5 25 22.6
002EEE71 2019-04-17 22:48:27 16.5 25 22.6
002EEE71 2019-04-17 22:15:02 16.5 25 22.4
002EEE71 2019-04-17 21:41:38 16.5 25 22.4
002EEE71 2019-04-17 21:08:14 16.5 25 22.4
002EEE71 2019-04-17 20:34:50 16.5 25 22.6
002EEE71 2019-04-17 20:01:26 16.5 24 22.4
002EEE71 2019-04-17 19:28:02 16.5 24 22.3
002EEE71 2019-04-17 18:54:38 16.5 24 22.3
002EEE71 2019-04-17 18:21:15 16.5 24 22.3
002EEE71 2019-04-17 17:47:51 16.5 24 22.3
002EEE71 2019-04-17 17:14:28 16.5 24 22.2
002EEE71 2019-04-17 16:41:05 16.5 24 22.2
002EEE71 2019-04-17 16:07:41 16.5 24 22.2
002EEE71 2019-04-17 15:34:18 16.7 24 22.1
002EEE71 2019-04-17 15:00:56 16.7 24 22.2
002EEE71 2019-04-17 14:27:33 16.8 24 21.2
002EEE71 2019-04-17 13:54:10 16.8 24 21.3
002EEE71 2019-04-17 13:20:48 16.8 24 21.5
002EEE71 2019-04-17 12:47:23 16.8 24 21.5
002EEE71 2019-04-17 12:14:00 16.8 24 21.5
002EEE71 2019-04-17 11:40:35 16.8 24 21.4
002EEE71 2019-04-17 11:07:10 17 23 21.4
002EEE71 2019-04-17 10:33:45 17 23 21.3
002EEE71 2019-04-17 10:00:22 17 23 21.1
002EEE71 2019-04-17 09:26:58 17.2 23 21
002EEE71 2019-04-17 08:53:35 17.2 23 20.8
002EEE71 2019-04-17 08:20:11 17.4 23 20.8
002EEE71 2019-04-17 07:46:45 17.6 23 20.8
002EEE71 2019-04-17 07:13:21 17.6 23 20.5
002EEE71 2019-04-17 06:39:58 17.6 23 20
002EEE71 2019-04-17 06:06:33 17.8 23 20.1
002EEE71 2019-04-17 05:33:09 17.8 23 20.1
002EEE71 2019-04-17 04:59:45 17.8 23 20
002EEE71 2019-04-17 04:26:21 17.8 23 20
002EEE71 2019-04-17 03:52:56 17.9 23 20.3
002EEE71 2019-04-17 03:19:34 18 23 20.4
002EEE71 2019-04-17 02:46:10 18 23 20.4
002EEE71 2019-04-17 02:12:47 18 23 20.4
002EEE71 2019-04-17 01:39:23 18 23 20
002EEE71 2019-04-17 01:06:00 18.1 23 20.3
002EEE71 2019-04-17 00:32:37 18.2 23 20.1
002EEE71 2019-04-16 23:59:13 18.3 22 20.4
002EEE71 2019-04-16 23:25:50 18.3 22 20.1
002EEE71 2019-04-16 22:52:26 18.5 22 20.2
002EEE71 2019-04-16 22:19:02 18.7 22 20.4
002EEE71 2019-04-16 21:45:39 18.9 22 20.5
002EEE71 2019-04-16 21:12:14 19.1 22 20.8
002EEE71 2019-04-16 20:38:51 19.1 22 20.9
002EEE71 2019-04-16 20:05:27 19.2 22 21.3
002EEE71 2019-04-16 19:32:05 19.3 22 21.6
002EEE71 2019-04-16 18:58:41 19.4 22 21.8
002EEE71 2019-04-16 18:25:18 19.5 22 22
002EEE71 2019-04-16 17:51:56 19.8 22 22.1
002EEE71 2019-04-16 17:18:35 19.9 22 22.3
002EEE71 2019-04-16 16:45:11 20.1 22 22.6
002EEE71 2019-04-16 16:11:48 20.2 22 22.6
002EEE71 2019-04-16 15:38:25 20.4 22 22.7
002EEE71 2019-04-16 15:05:03 20.6 22 22.8
002EEE71 2019-04-16 13:58:18 20.8 23 22.8
002EEE71 2019-04-16 13:24:56 20.8 23 22.6
002EEE71 2019-04-16 12:51:34 20.8 23 22.6
002EEE71 2019-04-16 12:18:12 20.8 23 22.7
002EEE71 2019-04-16 11:44:50 20.8 23 22.7
002EEE71 2019-04-16 11:11:31 20.8 22 22.9
002EEE71 2019-04-16 10:38:06 20.8 22 22.8
002EEE71 2019-04-16 10:04:49 20.7 22 23
002EEE71 2019-04-16 09:31:22 20.8 22 22.9
002EEE71 2019-04-16 08:58:00 20.8 22 23.1
002EEE71 2019-04-16 08:24:38 20.8 22 23.2
002EEE71 2019-04-16 07:51:14 20.8 22 23.1
002EEE71 2019-04-16 07:17:52 20.8 22 23.1
002EEE71 2019-04-16 06:44:30 20.8 22 23
002EEE71 2019-04-16 06:11:06 20.8 22 22.9
002EEE71 2019-04-16 05:37:43 20.8 22 22.8
002EEE71 2019-04-16 05:04:21 20.8 22 22.8
002EEE71 2019-04-16 04:30:58 20.8 22 22.8
002EEE71 2019-04-16 03:57:35 20.8 22 22.6
002EEE71 2019-04-16 03:24:12 20.8 22 22.4
002EEE71 2019-04-16 02:50:48 20.8 21 22.4
002EEE71 2019-04-16 02:17:26 20.8 21 22.3
002EEE71 2019-04-16 01:44:03 20.8 21 22.4
002EEE71 2019-04-16 01:10:40 20.8 21 22.4
002EEE71 2019-04-16 00:37:16 20.8 21 22.4
002EEE71 2019-04-16 00:03:54 20.8 21 22.4
002EEE71 2019-04-15 23:30:31 20.9 21 22.6
002EEE71 2019-04-15 22:57:09 20.9 21 22.6
002EEE71 2019-04-15 22:23:48 21 21 22.7
002EEE71 2019-04-15 21:50:25 21 21 22.9
002EEE71 2019-04-15 21:17:02 21 21 23
002EEE71 2019-04-15 20:43:40 21 21 23.2
002EEE71 2019-04-15 20:10:18 21 20 23.2
002EEE71 2019-04-15 19:36:54 21 20 23.4
002EEE71 2019-04-15 19:03:31 21.1 20 23.4
002EEE71 2019-04-15 18:30:08 21.2 20 23.4
002EEE71 2019-04-15 17:56:46 21.2 20 23.7
002EEE71 2019-04-15 17:23:23 21.3 20 23.8
002EEE71 2019-04-15 16:50:01 21.5 20 24
002EEE71 2019-04-15 16:16:39 21.5 20 24.2
002EEE71 2019-04-15 15:43:16 21.6 19 24.2
002EEE71 2019-04-15 15:09:53 21.7 19 24.3
002EEE71 2019-04-15 14:36:31 21.9 19 24.4
002EEE71 2019-04-15 14:03:08 21.9 19 24.6
002EEE71 2019-04-15 13:29:44 22.1 19 24.8
002EEE71 2019-04-15 12:56:21 22.1 19 25
002EEE71 2019-04-15 12:22:58 22.3 18 25.1
002EEE71 2019-04-15 11:49:35 22.3 17 25.2
002EEE71 2019-04-15 11:16:14 22.3 17 25.2
002EEE71 2019-04-15 10:42:51 22.2 17 25.2
002EEE71 2019-04-15 10:09:29 22.1 17 25.4
002EEE71 2019-04-15 09:36:06 22.1 18 25.4
002EEE71 2019-04-15 09:02:45 21.9 17 25.4
002EEE71 2019-04-15 08:29:22 22 17 25.3
002EEE71 2019-04-15 07:55:58 21.9 17 25.3
002EEE71 2019-04-15 07:22:37 21.8 17 25.3
002EEE71 2019-04-15 06:49:15 21.7 17 25.3
002EEE71 2019-04-15 06:15:54 21.7 18 25.3
002EEE71 2019-04-15 05:42:32 21.7 18 25.2
002EEE71 2019-04-15 05:09:10 21.7 18 25.6
002EEE71 2019-04-15 04:35:49 21.7 18 25.6
002EEE71 2019-04-15 04:02:27 21.7 18 25.4
002EEE71 2019-04-15 03:29:04 21.7 18 25.4
002EEE71 2019-04-15 02:55:41 21.7 18 25.4
002EEE71 2019-04-15 02:22:17 21.7 18 25.3
002EEE71 2019-04-15 01:48:55 21.7 18 25.3
002EEE71 2019-04-15 01:15:33 21.7 18 25.3
002EEE71 2019-04-15 00:42:12 21.7 18 25.3
002EEE71 2019-04-15 00:08:51 21.7 18 25.3
002EEE71 2019-04-14 23:35:28 21.7 18 25.3
002EEE71 2019-04-14 23:02:06 21.7 18 25.5
002EEE71 2019-04-14 22:28:44 21.7 18 25.4
002EEE71 2019-04-14 21:55:22 21.8 19 25.3
002EEE71 2019-04-14 21:21:59 21.8 19 25.5
002EEE71 2019-04-14 20:48:37 21.9 19 25.5
002EEE71 2019-04-14 20:15:15 21.9 19 25.4
002EEE71 2019-04-14 19:41:54 22 19 25.5
002EEE71 2019-04-14 19:08:31 21.9 18 25.5
002EEE71 2019-04-14 18:35:09 21.9 18 25.5
002EEE71 2019-04-14 18:01:46 21.9 18 25.5
002EEE71 2019-04-14 17:28:23 21.9 18 25.4
002EEE71 2019-04-14 16:55:01 21.9 18 25.4
002EEE71 2019-04-14 16:21:38 21.9 18 25.7
002EEE71 2019-04-14 15:48:15 21.9 18 25.8
002EEE71 2019-04-14 15:14:53 21.9 18 25.5
002EEE71 2019-04-14 14:41:31 21.9 18 25.5
002EEE71 2019-04-14 14:08:09 21.9 19 25.6
002EEE71 2019-04-14 13:34:47 21.9 19 25.6
002EEE71 2019-04-14 13:01:24 21.9 19 25.5
002EEE71 2019-04-14 12:28:01 21.9 19 25.6
002EEE71 2019-04-14 11:54:37 21.9 19 25.7
002EEE71 2019-04-14 11:21:15 21.9 19 25.7
002EEE71 2019-04-14 10:47:51 21.9 19 25.8
002EEE71 2019-04-14 10:14:27 21.9 19 25.7
002EEE71 2019-04-14 09:41:04 21.8 19 25.6
002EEE71 2019-04-14 09:07:40 21.8 19 25.4
002EEE71 2019-04-14 08:34:18 21.8 19 25.5
002EEE71 2019-04-14 08:00:55 21.8 18 25.6
002EEE71 2019-04-14 07:27:32 21.7 18 25.4
002EEE71 2019-04-14 06:54:09 21.7 18 25.4
002EEE71 2019-04-14 06:20:47 21.8 18 25.5
002EEE71 2019-04-14 05:47:26 21.7 18 25.3
002EEE71 2019-04-14 05:14:04 21.7 18 25.2
002EEE71 2019-04-14 04:40:42 21.7 18 25.3
002EEE71 2019-04-14 04:07:19 21.7 18 25.3
002EEE71 2019-04-14 03:33:58 21.9 18 25.5
002EEE71 2019-04-14 03:00:36 21.9 18 25.4
002EEE71 2019-04-14 02:27:13 21.9 18 25
002EEE71 2019-04-14 01:53:50 21.8 18 24.9
002EEE71 2019-04-14 01:20:26 21.9 18 25
002EEE71 2019-04-14 00:47:03 21.9 18 24.9
002EEE71 2019-04-14 00:13:40 21.9 18 24.8
002EEE71 2019-04-13 23:40:17 21.9 18 24.8
002EEE71 2019-04-13 23:06:53 21.9 18 24.9
002EEE71 2019-04-13 22:33:30 21.9 18 24.9
002EEE71 2019-04-13 22:00:07 21.9 18 24.9
002EEE71 2019-04-13 21:26:43 22 18 24.8
002EEE71 2019-04-13 20:53:19 21.9 18 24.7
002EEE71 2019-04-13 20:19:56 22.1 18 24.7
002EEE71 2019-04-13 19:46:33 22.1 18 24.7
002EEE71 2019-04-13 19:13:09 22.1 18 24.6
002EEE71 2019-04-13 18:39:46 22.1 18 24.5
002EEE71 2019-04-13 18:06:23 22.1 18 24.4
002EEE71 2019-04-13 17:33:00 22.1 18 24.3
002EEE71 2019-04-13 16:59:37 22.1 18 24.3
002EEE71 2019-04-13 16:26:14 22.1 18 24.4
002EEE71 2019-04-13 15:52:51 22.1 18 24.6
002EEE71 2019-04-13 15:19:29 22.1 18 24.6
002EEE71 2019-04-13 14:46:06 22.2 18 24.6
002EEE71 2019-04-13 14:12:44 22.2 18 24.5
002EEE71 2019-04-13 13:39:21 22.3 18 24.4
002EEE71 2019-04-13 13:05:57 22.3 18 24.8
002EEE71 2019-04-13 12:32:34 22.3 18 24.9
002EEE71 2019-04-13 11:59:10 22.3 18 25
002EEE71 2019-04-13 11:25:48 22.3 18 24.9
002EEE71 2019-04-13 10:52:26 22.3 18 24.9
002EEE71 2019-04-13 10:19:04 22.3 18 24.9
002EEE71 2019-04-13 09:45:44 22.3 18 25.1
002EEE71 2019-04-13 09:12:21 22.3 18 25.3
002EEE71 2019-04-13 08:38:58 22.3 18 25.3
002EEE71 2019-04-13 08:05:35 22.2 18 25.2
002EEE71 2019-04-13 07:32:13 22.2 18 25.4
002EEE71 2019-04-13 06:58:50 22.2 17 25.4
002EEE71 2019-04-13 06:25:28 22.2 17 25.4
002EEE71 2019-04-13 05:52:07 22.2 17 25.4
002EEE71 2019-04-13 05:18:45 22.2 18 25.8
002EEE71 2019-04-13 04:45:24 22.2 18 25.8
002EEE71 2019-04-13 04:12:03 22.2 18 26.1
002EEE71 2019-04-13 03:38:41 22.3 18 26.4
002EEE71 2019-04-13 03:05:20 22.3 18 26.5
002EEE71 2019-04-13 02:31:57 22.3 18 26.2
002EEE71 2019-04-13 01:58:36 22.3 18 26.2
002EEE71 2019-04-13 01:25:14 22.3 18 26.3
002EEE71 2019-04-13 00:51:52 22.3 18 26.4
002EEE71 2019-04-13 00:18:30 22.3 18 26.5
002EEE71 2019-04-12 23:45:08 22.5 18 26.6
002EEE71 2019-04-12 23:11:46 22.5 18 26.3
002EEE71 2019-04-12 22:38:26 22.5 18 26.4
002EEE71 2019-04-12 22:05:05 22.5 18 26.4
002EEE71 2019-04-12 21:31:44 22.7 18 26.5
002EEE71 2019-04-12 20:58:22 22.7 19 26.7
002EEE71 2019-04-12 20:24:59 22.7 18 26.8
002EEE71 2019-04-12 19:51:37 22.7 18 26.7
002EEE71 2019-04-12 19:18:15 22.7 18 26.7
002EEE71 2019-04-12 18:44:52 22.8 17 26.8
002EEE71 2019-04-12 18:11:31 23 17 27
002EEE71 2019-04-12 17:38:09 23 17 27
002EEE71 2019-04-12 17:04:49 23.2 17 27.2
002EEE71 2019-04-12 16:31:27 23.2 17 27.5
002EEE71 2019-04-12 15:58:05 23.2 18 27.9
002EEE71 2019-04-12 15:24:44 23 18 27.3
002EEE71 2019-04-12 14:51:23 22.9 19 27.7
002EEE71 2019-04-12 14:18:02 22.7 19 26.6
002EEE71 2019-04-12 13:44:40 22.3 20 22.5
002EEE71 2019-04-12 13:11:19 21.3 22 11.7